Starlink 5055

operational
NORAD ID: 54015 Int'l Des: 2022-125 Owner: SPXS Country: US Constellation: starlink
LEOCIRCULAR

Starlink 5055について

説明を読み込み中...

リアルタイム位置

3D地球を読み込み中...

次回通過

高度履歴

Altitude vs Time

uPlot chart will show altitude changes over time

軌道要素

1 54015U 22125BD 26063.58613848 .00003862 00000-0 26065-3 0 9998
2 54015 53.2164 226.9438 0001251 90.0880 270.0256 15.08833225188833
Epoch: Mar 4, 2026 • Age: 20 hours

現在のステータス

高度 548.7 km
速度 7.59 km/s
衛星直下点 -28.15°S, 95.72°E
打ち上げ日 Oct 5, 2022
運用期間 3.4 years
タイプ internet

技術仕様

分類 Payload
質量 305.00 kg
乾燥質量 290.00 kg
総質量 305.00 kg
長さ 0.20 m
直径 2.80 m
スパン 9.00 m
形状 Box + pan
製造者 SPXS
バスタイプ Starlink
フェーズステータス In Orbit
所有者/国 SPXS/US

大規模コンステレーション

Loading constellations...